Other Public Products
Issued by NWS Grand Forks, ND

Home | Current Version | Previous Version | Text Only | Print | Product List | Glossary Off
Versions: 1 2 3 4 5 6 7 8 9 10 11 12 13 14 15 16 17 18 19 20 21 22 23 24 25 26 27 28 29 30 31 32 33 34 35 36 37 38 39 40 41 42 43 44 45 46 47 48 49 50

000
FPUS83 KFGF 182231
OPUFGF
PRAIRIE TO PINES WEATHER ROUNDUP
NATIONAL WEATHER SERVICE EASTERN NORTH DAKOTA/GRAND FORKS ND
500 PM CDT FRI APR 18 2014

 **SATELLITE DATA USED TO AUGMENT SKY COVER AT AUTOMATED STATIONS**
 *****  WEATHER ACROSS EASTERN NORTH DAKOTA  *****

CITY           SKY/WX    TMP DP  RH WIND       PRES   REMARKS
GRAND FORKS    CLOUDY    50  28  42 SE26G36   30.06F
GRAND FORKS AF CLOUDY    51  28  41 SE25G35   30.05F
GRAND CITY NWS   N/A     50 N/A N/A SE16        N/A
BUXTON           N/A     50  34  53 SE28G40     N/A
DEVILS LAKE    CLOUDY    46  28  49 SE23G31   29.93F
FARGO          PTSUNNY   51  29  42 SE26G37   30.06F
WAHPETON ARPT  PTCLDY    46  30  53 SE28G36   30.08F
$$

 *****  WEATHER ACROSS CENTRAL AND WESTERN NORTH DAKOTA  *****

CITY           SKY/WX    TMP DP  RH WIND       PRES   REMARKS
JAMESTOWN      CLOUDY    49  32  52 SE28G46   29.90F
BISMARCK       MOSUNNY   63  38  39 SE30G38   29.73F
MINOT          CLOUDY    53  31  42 SE28G37   29.77F
MINOT AFB      CLOUDY    53  31  43 SE32G39   29.78F
GARRISON         N/A     55  35  47 SE23G33   29.73F
WILLISTON      CLOUDY    57  34  41 S16G23    29.68R
DICKINSON      PTSUNNY   63  36  36 SE25G36   29.62F
HETTINGER      PTSUNNY   63  39  41 SE17G28   29.65F
$$

 *****  OTHER OBSERVATIONS NORTHEAST NORTH DAKOTA  *****

CITY           SKY/WX    TMP DP  RH WIND       PRES   REMARKS
WALHALLA       MOCLDY    48  27  43 SE24G35   30.04F
LANGDON        CLOUDY    46  27  46 SE31G39   29.98F
CAVALIER       CLOUDY    48  30  49 SE14G25   30.06F
GRAFTON        CLOUDY    48  30  49 SE23G29   30.06F
CANDO          FAIR      48  30  49 SE35G45   29.92F
FORT TOTTEN      N/A     50  28  42 SE20      29.95
ROLLA          MOCLDY    45  28  53 SE32G41   29.93F
RUGBY          FAIR      48  32  53 SE26G38   29.86F
 ***** THE ABOVE OBSERVATIONS ARE NON NWS ARE NOT QUALITY
        CONTROLLED AND MAY MIS-REPORT RAIN FOR SNOW...
$$

 *****  OTHER OBSERVATIONS SOUTHEAST NORTH DAKOTA *****

CITY           SKY/WX    TMP DP  RH WIND       PRES   REMARKS
COOPERSTOWN    FAIR      46  32  57 SE32G44   29.96F
VALLEY CITY    FAIR      48  28  46 SE29G44   29.95F
OAKES          FAIR      50  37  62 E32G43    29.92F
GWINNER        CLEAR     48  34  57 SE33G44   29.98F
SHEYENNE NWR     N/A     51  30  44 SE24      29.95S
BUFFALO          N/A     49  25  39 SE35        N/A
WYNDMERE       NOT AVBL
 ***** THE ABOVE OBSERVATIONS ARE NON NWS ARE NOT QUALITY
       CONTROLLED AND MAY MIS-REPORT RAIN FOR SNOW...
$$

  *****  WEATHER ACROSS NORTHERN MINNESOTA  *****

CITY           SKY/WX    TMP DP  RH WIND       PRES   REMARKS
FLAG ISLAND    SUNNY     43  14  31 E13G18    30.23F
WARROAD        SUNNY     46  25  42 E10       30.18F
ROSEAU         MOSUNNY   52  16  24 SE18      30.16F
HALLOCK          N/A     48  23  37 SE20G28   30.09F
THF RVR FALLS  PTSUNNY   52  23  32 SE20G30   30.11F
HALSTAD          N/A     50  28  43 SE29        N/A
FOSSTON        PTSUNNY   50  25  37 SE16G26   30.12F
BAUDETTE       SUNNY     48  14  25 E17       30.22F
WASKISH        MOSUNNY   50  19  29 E16       30.20F
CROOKSTON      CLOUDY    52  28  40 SE25      30.09F
$$
  *****  WEATHER ACROSS CENTRAL AND WEST MINNESOTA  *****

CITY           SKY/WX    TMP DP  RH WIND       PRES   REMARKS
BEMIDJI        MOSUNNY   46  22  37 SE20      30.17F
PARK RAPIDS    PTSUNNY   47  24  40 SE20      30.17F
WADENA         PTSUNNY   43  27  52 SE21G29   30.16F
DETROIT LAKES  PTSUNNY   45  28  53 SE20G26   30.12F
MOORHEAD       PTSUNNY   52  25  35 SE21G33   30.08F
FERGUS FALLS   PTSUNNY   46  19  34 SE20G33   30.10S
ELBOW LAKE     FAIR      46  31  55 SE25G32   30.12F
MORRIS MN      MOSUNNY   50  36  57 SE30G38   30.10F
STAPLES        CLOUDY    43  23  45 SE13G23   30.20F
WHEATON        MOSUNNY   52  39  62 E35       30.08F
$$
  *****  WEATHER ELSEWHERE ACROSS MINNESOTA  *****

CITY           SKY/WX    TMP DP  RH WIND       PRES   REMARKS
DULUTH         SUNNY     37  19  48 E13       30.33F
INTRNTL FALLS  SUNNY     45  13  27 SE7       30.27F
ELY            SUNNY     43  16  33 E5        30.31F
CLOQUET        SUNNY     39  12  33 E15       30.32S
BRAINERD       CLOUDY    47  23  38 E13G20    30.25F
HIBBING        MOSUNNY   49  11  21 SE15      30.28F
ALEXANDRIA     MOSUNNY   45  28  51 SE20G33   30.16F
SAINT CLOUD    CLOUDY    45  27  49 E10       30.23F
MINNEAPOLIS    CLOUDY    50  28  42 E18       30.27F
$$

  *****  WEATHER ACROSS SOUTH DAKOTA  *****

CITY           SKY/WX    TMP DP  RH WIND       PRES   REMARKS
SIOUX FALLS    PTSUNNY   65  35  33 S28G40    30.01F
BROOKINGS      NOT AVBL
WATERTOWN      SUNNY     62  36  37 S31G39    29.96F
HURON          MOSUNNY   70  38  31 S29G41    29.84F
SISSETON         N/A     50  37  61 S33G40    30.02F
ABERDEEN       MOSUNNY   67  38  34 S35G43    29.85F
MITCHELL       MOSUNNY   71  40  32 S32G49    29.89F
PIERRE         PTSUNNY   82  35  18 S29G38    29.65F
MOBRIDGE       MOSUNNY   70  39  32 SE24G31   29.65F
RAPID CITY     CLOUDY    73  37  27 S24G32    29.64F
$$

  *****  SOME WEATHER IN NEARBY STATES *****

CITY           SKY/WX    TMP DP  RH WIND       PRES   REMARKS
GLASGOW MT     CLOUDY    48  43  82 SE8       29.65S
GREAT FALLS MT PTSUNNY   53  15  22 W35G44    29.71S
CHEYENNE WY    MOSUNNY   69  27  20 SW15G25   29.90F
SCOTTSBLUFF NE CLOUDY    81  33  17 SW20G28   29.77F
OMAHA NE       MOSUNNY   68  36  30 S21G29    30.11F
DES MOINES IA  MOSUNNY   65  31  28 S14G21    30.21F
DAVENPORT IA   SUNNY     62  27  26 SE6       30.28F
CHICAGO IL     MOSUNNY   49  31  49 NE10      30.33S
EAU CLAIRE WI  MOSUNNY   51  21  30 VRB5      30.32S
LA CROSSE WI   MOSUNNY   54  25  32 W6        30.30F
$$

  *****  SOME NATIONAL WEATHER *****

CITY           SKY/WX    TMP DP  RH WIND       PRES   REMARKS
LA GUARDIA NY  CLOUDY    46  30  53 S8        30.35F
RALEIGH NC     CLOUDY    60  41  49 NE7       30.27S
ATLANTA GA     LGT RAIN  51  48  89 NE13      30.13F FOG
NEW ORLEANS LA MOSUNNY   73  58  59 NE14      30.06S
OKLAHOMA CITY  MOSUNNY   74  41  30 SE9       30.14F
ALBUQUERQUE NM PTSUNNY   77  18  11 S21G30    30.02F
SALT LAKE CITY CLOUDY    63  39  41 N14       29.95F
LOS ANGELES CA PTSUNNY   67  53  61 SW14      29.90F
BOISE ID       SUNNY     61  24  24 W15       29.98F
SEATTLE WA     PTSUNNY   55  36  48 SW8       30.11F
$$

*** WEATHER ACROSS MANITOBA...SASKATCHEWAN AND ONTARIO ***
                ***ONTARIO***

CITY           SKY/WX    TMP DP  RH WIND       PRES   REMARKS
GERALDTON      SUNNY     41  14  33 N5        30.35S
THUNDER BAY    MOSUNNY   43  25  49 CALM      30.39F
SIOUX LOOKOUT  PTSUNNY   43   7  22 S8        30.33S
TORONTO        CLOUDY    50  37  62 NW10      30.24F
BIG TROUT LK   SUNNY     37  10  32 S7        30.37F
PICKLE LAKE    MOSUNNY   43   5  21 N3        30.34S
DRYDEN         SUNNY     43  12  28 S14G20    30.31F
KENORA         PTSUNNY   43  12  28 SE14G20   30.27F
$$
                *** MANITOBA***

CITY           SKY/WX    TMP DP  RH WIND       PRES   REMARKS
BRANDON        CLOUDY    37  28  70 E20G28    29.99F
DAUPHIN        LGT RAIN  37  21  52 SE21G30   30.05F
ISLAND LAKE    MOSUNNY   43  12  28 E5        30.31F
PILOT MOUND      N/A     43  27  52 E25G32      N/A
THE PAS        PTSUNNY   37  12  35 SE17G23   30.13F
THOMPSON       MOSUNNY   41  10  28 S8        30.27F
WINNIPEG       CLOUDY    46  19  34 E17G28    30.14F
LYNN LAKE      SUNNY     41   5  22 SE16G22   30.17F
CHURCHILL      SUNNY     25  16  68 S10       30.41F WCI  15
GILLAM         SUNNY     41  12  30 SE7       30.35F
$$
                ***SASKATCHEWAN***

CITY           SKY/WX    TMP DP  RH WIND       PRES   REMARKS
ESTEVAN        CLOUDY    46  30  53 SE23G35   29.73F
KINDERSLEY     LGT RAIN  45  41  87 SE13      29.57R
LLOYDMINSTER   CLOUDY    32  30  93 E12       29.68S WCI  23
PRINCE ALBERT  LGT SNOW  32  30  93 E21G29    29.87  VSB 3/4 WCI  20
REGINA         SNOWSHWR  34  32  93 SE23G33   29.74F FOG     WCI  22



USA.gov is the U.S. government's official web portal to all federal, state and local government web resources and services.